SCP
0 0 0 0 0 0 0 0 0 -0 -0 -0 -0 -0 -0 -0 -0 0 0 -0 -0 -0 -0 -0 -0 -0 -0 0 -0 0 0 0 0 0 0 0 0 0 0 -0 -0 -0 -0 0 -0 -0 -0
0 0 0 0 0 0 0 0 0 -0 -0 -0 -0 -0 -0 0 -0 -0 0 -0 -0 -0 -0 -0 -0 -0 0 0 0 0 -0 -0 0 0 0 0 0 0 -0 0 0 0 -0 0 -0 -0 0
0 0 0 0 0 0 0 0 0 0 -0 -0 -0 -0 -0 0 0 0 0 -0 -0 -0 -0 -0 -0 0 0 -0 0 0 -0 0 0 0 0 0 0 -0 0 0 0 -0 0 -0 0 0 0
0 0 0 0 0 0 0 0 0 0 0 0 -0 -0 -0 0 0 -0 -0 -0 -0 -0 -0 -0 0 0 -0 0 0 0 0 0 0 0 0 0 0 0 0 0 0 0 0 -0 0 0 0
0 0 0 0 0 0 0 0 0 0 0 0 0 0 0 0 0 -0 -0 0 -0 -0 -0 -0 -0 -0 -0 -0 0 0 0 0 0 0 0 0 0 -0 0 0 0 0 0 0 -0 0 -0
0 0 0 0 0 0 0 0 0 0 0 0 0 -0 -0 0 0 0 0 0 0 0 0 0 0 0 0 0 0 0 0 0 0 0 0 0 0 0 0 0 0 0 0 -0 0 0 -0
0 0 0 0 0 0 0 0 0 0 0 0 -0 -0 -0 0 -0 -0 0 0 0 0 0 0 0 0 0 0 0 0 0 0 0 0 0 0 0 0 0 0 0 0 0 0 0 -0 0
0 0 0 0 0 0 0 0 0 0 0 0 -0 -0 -0 0 -0 -0 -0 0 0 0 -0 -0 -0 -0 -0 0 0 0 0 -0 -0 0 0 0 0 -0 0 0 0 0 0 0 0 0 0
0 0 0 0 0 0 0 0 0 0 0 0 0 -0 -0 0 0 -0 0 0 0 0 0 -0 -0 0 0 0 0 0 -0 -0 -0 0 0 0 -0 0 0 -0 0 0 0 0 0 0 0
0 0 0 0 0 0 0 0 0 0 0 0 0 0 -0 0 0 0 0 0 0 0 0 0 -0 0 0 0 0 0 -0 -0 -0 0 0 -0 0 0 0 0 0 0 0 0 -0 0 0
0 0 0 0 0 0 0 0 0 0 0 0 0 0 0 0 0 0 0 0 -0 0 0 0 0 0 -0 0 0 0 0 -0 0 -0 0 0 -0 0 0 0 0 -0 0 0 0 0 0
0 0 0 0 0 0 0 0 0 0 0 0 0 0 0 0 0 0 0 0 0 0 0 0 0 0 0 0 0 0 0 0 -0 -0 -0 0 0 0 0 0 0 0 0 0 0 0 0
0 0 0 0 0 0 0 0 0 0 0 0 0 0 0 0 0 0 0 0 0 0 -0 0 0 0 0 0 0 0 0 0 -0 0 0 0 0 0 0 0 0 0 -0 0 0 0 0
0 0 0 0 0 0 0 0 0 0 0 0 0 0 -0 0 0 0 0 0 0 -0 -0 -0 -0 0 -0 -0 0 0 0 -0 0 0 0 0 0 0 0 0 0 0 -0 0 0 0 0
0 0 0 0 0 0 0 0 0 0 0 0 0 0 0 0 0 0 0 0 0 0 0 0 -0 -0 -0 0 0 0 0 0 0 0 -0 0 -0 0 0 0 0 -0 0 0 0 0 0
0 0 0 0 0 0 0 0 0 0 0 0 0 0 0 0 0 0 0 -0 0 0 0 0 0 -0 0 -0 0 0 0 -0 0 0 0 0 0 -0 0 0 0 0 0 0 0 0 0
0 0 0 0 0 0 0 0 0 0 0 0 0 0 0 0 0 0 0 -0 -0 0 0 0 0 0 0 0 0 0 0 0 0 0 0 0 0 0 0 0 0 0 0 0 0 0 0
0 0 0 0 0 0 0 0 0 0 0 -0 0 0 0 0 0 0 -0 -0 0 0 -0 0 0 0 0 0 0 0 0 -0 0 0 0 0 0 0 0 0 0 -0 0 0 0 0 0
0 0 0 0 0 0 0 0 0 0 0 0 0 0 0 0 0 0 0 0 0 0 0 0 0 0 0 0 -0 0 0 0 0 0 0 0 0 0 0 0 -0 0 0 0 0 0 0
0 0 0 0 0 0 0 0 0 0 0 0 0 0 0 0 0 0 0 0 0 0 0 0 0 0 0 0 0 0 0 0 0 0 0 0 0 0 0 0 -0 -0 0 0 0 0 0
0 0 0 0 0 0 0 0 0 0 0 0 0 0 0 0 0 0 0 0 0 0 0 0 0 0 0 0 0 0 0 0 0 0 0 0 0 0 0 0 -0 0 0 0 0 0 0
0 0 0 0 0 0 0 0 0 0 0 0 0 0 0 0 0 0 0 0 0 0 0 0 0 0 0 0 0 0 0 0 0 0 0 0 0 0 0 0 0 0 0 0 0 -0 0
0 0 0 0 0 0 0 0 0 0 0 0 0 0 0 0 0 0 0 0 0 0 0 0 0 0 0 0 0 0 0 0 0 0 0 0 0 0 0 0 0 0 0 0 0 0 0
0 0 0 0 0 0 0 0 0 0 0 0 0 0 0 0 0 0 0 0 0 0 0 0 0 0 0 0 0 0 0 0 0 0 0 0 0 0 0 0 0 0 0 0 0 0 0
0 0 0 0 0 0 0 0 0 0 0 0 0 0 0 0 0 0 0 0 0 0 0 0 0 0 0 0 0 0 0 0 0 0 0 0 0 0 0 0 0 0 0 0 0 0 0
0 0 0 0 0 0 0 0 0 0 0 0 0 0 0 0 0 0 0 0 0 0 0 0 0 0 0 0 0 0 0 0 0 0 0 0 0 0 0 0 0 0 0 0 0 0 0
0 0 0 0 0 0 0 0 0 0 0 0 0 0 0 0 0 0 0 0 0 0 1 1 0 0 0 0 0 0 0 0 0 0 0 0 0 0 0 0 0 0 0 0 0 0 0
0 0 0 0 0 0 0 0 0 0 0 0 0 -0 0 0 0 0 0 0 0 0 0 1 1 0 0 0 0 0 0 0 0 0 0 0 0 0 0 0 0 0 0 0 0 0 0
0 0 0 0 0 0 0 0 0 0 0 0 0 0 0 0 0 0 0 -0 0 0 0 1 1 2 2 1 0 0 0 0 0 0 0 0 -0 -0 0 0 -0 0 0 0 0 0 0
Wind_Speed_500mb
29 27 23 22 20 17 15 15 15 12 12 13 16 20 26 30 33 32 29 25 22 25 25 26 27 28 21 13 16 20 21 6 10 13 13 20 34 52 14 26 51 43 53 40 40 60 47
30 27 25 23 20 19 17 14 11 11 12 12 16 21 27 32 33 33 29 24 21 22 22 22 22 23 23 10 16 19 10 5 10 9 10 18 32 43 24 27 30 42 52 41 19 3 14
31 29 27 24 21 20 16 13 10 11 12 14 17 22 28 32 34 33 29 23 20 19 20 18 20 26 20 19 7 17 15 5 8 6 15 29 37 36 36 12 35 48 26 11 11 9 5
32 30 28 25 22 19 16 13 11 11 12 15 19 26 30 32 32 32 27 21 18 17 16 14 17 22 15 10 11 17 11 4 5 14 25 25 29 34 21 12 15 15 9 9 7 6 8
32 31 29 27 24 21 16 12 10 11 13 17 21 25 30 32 31 30 24 19 18 15 13 11 10 12 20 8 18 17 16 14 12 20 24 25 25 21 22 4 10 18 2 10 6 17 9
32 30 28 25 21 17 14 11 10 9 12 18 22 26 29 29 29 27 21 18 18 15 13 14 16 15 13 9 1 10 17 13 15 17 26 31 17 4 11 7 3 11 5 7 5 12 46
32 30 27 25 21 18 15 10 7 8 12 17 22 26 27 28 27 23 16 12 20 7 18 17 7 25 8 7 7 13 11 11 19 27 12 37 4 14 32 15 10 38 13 11 8 40 20
32 30 27 25 21 17 13 8 5 8 12 17 21 25 25 25 23 18 10 5 21 22 21 29 43 37 34 10 10 16 19 10 15 15 23 13 16 31 6 13 2 11 8 11 23 26 15
32 31 28 24 20 15 10 5 3 8 13 18 22 24 24 22 17 12 9 18 13 20 10 27 31 28 25 20 27 29 31 30 18 18 23 16 27 7 9 15 11 13 18 13 25 25 26
32 31 29 25 21 16 11 5 2 9 14 18 20 22 21 18 9 12 17 17 19 13 5 10 19 16 21 30 11 31 34 29 13 26 18 22 11 6 12 16 16 16 26 35 27 9 10
31 28 26 24 20 15 10 4 2 8 15 19 20 19 16 14 11 5 11 11 26 4 3 22 21 11 19 21 3 23 34 35 26 29 23 9 9 17 13 10 12 11 30 18 12 14 13
30 27 24 20 17 14 9 3 3 10 15 20 21 19 15 11 6 4 12 17 14 4 10 14 16 11 8 34 31 21 29 22 22 22 41 10 35 15 6 14 11 9 13 8 12 10 8
29 26 22 18 15 11 6 2 7 13 18 20 22 20 16 17 5 8 16 14 4 7 13 21 16 17 12 15 24 11 13 10 11 11 9 25 6 16 13 7 11 17 13 7 9 8 9
28 24 20 15 11 6 2 6 13 19 23 23 23 21 20 19 20 5 7 6 9 17 23 27 25 23 19 23 17 16 15 11 17 10 2 6 14 13 7 9 4 12 8 8 5 7 7
26 22 18 13 7 2 5 11 17 22 25 24 23 23 16 7 24 5 11 4 9 9 22 6 28 25 18 16 12 11 12 14 16 16 12 7 11 23 16 6 4 12 10 10 5 3 11
24 19 15 11 6 3 7 14 19 23 24 22 25 28 19 2 10 10 1 9 9 17 21 16 8 21 18 24 15 7 9 11 16 4 35 8 6 32 11 6 4 5 9 10 9 6 8
22 18 14 10 7 5 9 14 19 22 22 19 26 10 19 26 18 13 6 12 13 4 8 9 13 14 6 15 16 6 10 21 2 13 25 21 12 14 19 8 9 14 11 11 4 7 3
23 19 14 11 7 6 11 15 20 22 18 15 13 7 21 20 6 10 8 9 16 6 6 6 9 9 8 8 11 13 7 3 22 16 7 6 9 5 4 11 6 6 9 10 9 13 4
22 18 14 10 6 6 11 15 18 20 18 15 8 16 12 25 5 9 18 29 45 41 6 10 5 9 15 6 6 3 9 18 21 11 9 3 5 6 16 11 9 4 8 11 4 4 6
22 17 13 9 5 4 10 13 16 18 19 15 7 5 14 30 32 9 13 17 22 13 12 23 9 15 12 8 1 6 7 6 15 12 10 15 6 11 11 12 7 8 10 11 10 6 5
21 16 11 7 3 4 9 14 17 18 18 14 9 12 27 7 16 20 19 16 24 11 21 14 11 8 10 6 11 1 11 7 11 6 3 8 3 8 5 16 12 11 7 15 12 10 12
20 15 11 6 3 5 9 13 17 20 17 12 11 13 22 29 33 24 17 14 25 16 13 11 12 18 13 8 8 5 9 7 8 4 3 4 1 7 10 16 12 11 11 12 13 18 15
19 15 10 5 2 5 10 14 18 18 10 4 18 17 10 23 11 9 13 17 16 25 30 24 20 12 12 21 26 26 16 23 24 17 7 9 6 7 7 20 23 15 6 14 14 13 14
20 14 10 5 3 3 9 13 18 20 16 12 22 15 10 9 13 7 27 31 21 19 6 17 12 3 13 16 27 2 6 8 30 16 20 10 9 6 7 6 5 12 14 16 17 15 17
20 16 11 6 2 3 7 11 15 19 16 6 16 16 9 8 31 39 47 30 40 5 5 6 4 1 16 16 2 7 4 4 8 14 11 11 9 2 6 5 7 8 10 11 14 12 16
22 16 12 7 2 3 7 11 14 17 18 3 12 29 3 12 9 35 37 38 7 7 5 6 6 11 9 6 4 8 8 11 6 4 7 2 6 9 3 2 5 8 12 24 28 6 23
21 17 12 7 2 3 7 11 13 17 20 8 11 31 5 8 13 31 26 17 32 14 5 13 5 2 2 4 2 4 4 7 4 7 4 10 9 9 5 6 4 4 17 5 2 13 28
22 16 11 7 2 3 6 10 13 17 19 14 10 28 26 8 8 18 18 24 23 16 5 20 8 7 3 1 0 7 9 8 7 12 9 9 7 8 9 4 3 7 3 5 19 34 32
24 17 10 5 1 3 6 9 12 15 16 16 12 16 17 12 7 13 10 13 15 16 15 11 15 17 16 4 7 9 5 7 12 6 6 2 11 10 10 7 24 12 20 36 42 44 33
Wind_Direction_500mb
226 225 227 235 240 249 262 274 281 300 311 321 328 331 332 333 332 331 325 319 314 318 325 329 327 327 343 324 290 325 322 281 206 204 220 287 302 295 304 351 76 94 94 90 127 140 140
225 225 226 230 235 242 247 255 276 302 308 319 325 329 330 330 330 330 325 322 312 319 320 327 325 324 329 292 339 330 330 184 174 208 215 290 292 329 16 55 66 98 96 116 116 38 90
219 222 224 228 232 241 251 268 283 287 298 316 324 326 326 328 331 330 327 322 313 316 316 325 321 323 297 249 309 322 326 184 156 270 293 317 333 341 333 358 87 129 112 137 138 231 351
213 215 219 223 227 237 242 251 262 282 302 318 325 325 326 329 331 329 328 321 313 309 313 315 318 321 266 301 267 243 268 184 214 248 273 302 320 318 306 231 39 70 63 52 143 122 305
208 209 212 215 216 219 224 236 260 282 307 319 320 321 325 329 329 330 327 317 305 306 303 294 305 331 276 282 269 194 211 211 244 256 257 282 297 291 306 81 54 18 49 303 314 165 211
204 203 204 206 206 205 211 225 246 280 304 314 320 322 325 327 329 331 325 316 317 303 293 283 257 298 263 218 202 190 196 199 233 266 271 264 263 234 299 76 212 153 202 248 168 94 62
197 195 193 192 191 194 200 217 249 292 310 316 318 322 325 328 328 331 327 340 345 26 318 242 185 269 269 67 138 189 186 226 223 258 252 271 231 236 228 233 219 182 158 198 103 140 101
188 185 183 182 182 186 189 207 258 303 317 320 321 324 327 328 327 331 325 322 26 332 305 275 274 273 263 251 205 217 191 208 219 248 261 313 248 259 155 236 74 47 94 93 70 100 80
179 177 176 175 175 177 179 193 305 326 330 328 325 327 329 329 332 6 344 333 355 345 290 292 245 252 246 227 243 209 196 214 235 235 258 233 260 213 290 38 72 50 78 49 118 85 53
175 174 171 171 170 169 167 166 2 348 346 340 329 326 326 322 320 333 308 11 348 313 314 250 201 240 244 212 255 209 205 217 243 248 264 262 231 149 65 56 46 62 92 100 158 97 103
171 170 169 169 164 164 160 156 23 356 356 353 339 328 320 306 276 284 23 327 327 237 321 153 179 195 197 204 227 203 208 231 257 285 310 258 30 80 83 68 53 154 121 135 110 83 93
168 167 168 167 164 165 162 166 326 337 345 348 344 327 312 291 252 351 350 341 316 17 246 165 153 206 163 217 249 215 204 230 292 285 287 230 132 108 90 82 78 295 146 58 74 117 47
167 167 167 165 167 168 172 263 311 320 324 330 335 319 294 260 215 8 338 303 352 223 155 146 167 155 195 244 246 209 179 248 230 344 359 343 160 104 82 13 29 16 9 343 17 40 194
166 166 164 162 167 165 230 316 321 319 316 313 320 309 285 261 228 29 333 2 244 289 281 162 161 161 194 215 239 254 180 216 270 250 353 80 332 25 71 56 41 305 119 131 288 163 164
165 166 164 161 165 194 312 317 321 320 321 312 313 308 280 242 209 207 317 245 233 308 325 81 155 156 209 212 220 219 174 208 240 230 138 143 302 312 72 356 88 304 1 232 187 325 93
169 169 170 168 179 261 311 314 318 320 324 319 307 308 269 150 165 172 235 257 278 287 348 8 341 171 186 188 195 215 177 253 252 134 127 33 38 287 174 244 185 237 260 9 2 6 75
175 177 180 187 199 264 297 311 322 327 326 316 321 302 130 174 199 197 210 246 304 269 64 337 6 338 276 157 161 234 213 268 72 165 114 153 137 330 57 5 352 356 13 20 94 64 89
179 179 184 198 216 278 308 314 323 333 325 310 330 288 183 203 153 215 232 258 266 19 155 304 347 300 288 192 172 203 246 285 133 95 43 26 129 94 197 290 323 335 108 91 106 311 303
180 181 186 195 225 283 311 319 326 334 331 322 289 264 206 192 208 247 261 272 277 284 246 181 244 264 317 32 133 57 94 324 74 68 114 18 355 95 343 3 337 292 140 116 144 74 289
181 186 190 199 222 304 322 328 327 329 324 318 276 273 184 210 231 289 311 280 266 247 320 324 223 256 331 358 360 86 130 44 53 90 97 89 49 131 173 210 286 257 179 174 118 69 335
181 186 186 196 232 320 332 337 333 328 317 308 237 279 337 202 236 233 255 286 298 254 197 268 311 232 267 310 341 54 115 105 86 73 95 101 101 352 287 244 250 321 320 105 90 56 87
178 180 182 189 252 334 342 345 340 333 319 303 321 337 326 300 209 199 234 266 271 257 174 202 228 282 218 244 237 317 153 155 184 142 55 35 123 14 288 345 318 229 292 130 124 115 76
175 177 181 188 254 336 351 2 354 355 352 27 326 300 321 287 292 195 247 260 273 256 266 171 202 229 244 243 261 285 295 241 173 146 167 133 110 71 293 47 359 329 2 106 109 93 115
175 171 178 189 228 347 5 9 11 12 24 55 358 333 300 293 333 236 252 257 266 315 104 317 281 357 332 316 228 12 3 46 157 164 160 155 135 145 239 66 225 241 81 81 96 130 113
175 171 172 189 196 22 5 12 18 18 19 34 8 8 345 317 327 355 345 315 262 187 50 359 343 89 303 324 99 65 2 359 186 190 171 146 138 157 138 209 264 66 106 121 118 47 85
176 173 170 167 182 14 3 14 22 16 19 9 19 6 59 319 347 355 341 358 270 169 142 252 279 301 306 281 138 146 180 192 234 175 141 166 126 126 134 335 265 183 106 101 99 56 87
175 172 170 166 173 353 1 14 19 17 14 15 7 11 11 298 357 4 5 340 2 1 359 335 140 260 289 309 343 169 150 349 60 104 359 8 328 166 210 223 74 318 98 108 202 215 116
174 171 165 161 153 12 0 11 16 17 18 34 23 352 356 270 327 2 5 27 13 25 40 334 360 357 148 330 76 92 41 10 28 4 349 101 12 331 356 342 60 300 75 166 157 126 129
176 177 179 183 223 347 356 4 8 10 10 15 332 311 327 264 253 351 32 54 51 3 342 333 309 357 336 328 66 91 124 26 334 325 285 322 182 189 155 232 250 136 132 146 157 153 152
Wind_Speed_850mb
29 27 23 22 20 17 15 15 15 12 12 13 16 20 26 30 33 32 29 25 22 25 25 26 27 28 21 13 16 20 21 6 10 13 13 20 34 52 14 26 51 43 53 40 40 60 47
30 27 25 23 20 19 17 14 11 11 12 12 16 21 27 32 33 33 29 24 21 22 22 22 22 23 23 10 16 19 10 5 10 9 10 18 32 43 24 27 30 42 52 41 19 3 14
31 29 27 24 21 20 16 13 10 11 12 14 17 22 28 32 34 33 29 23 20 19 20 18 20 26 20 19 7 17 15 5 8 6 15 29 37 36 36 12 35 48 26 11 11 9 5
32 30 28 25 22 19 16 13 11 11 12 15 19 26 30 32 32 32 27 21 18 17 16 14 17 22 15 10 11 17 11 4 5 14 25 25 29 34 21 12 15 15 9 9 7 6 8
32 31 29 27 24 21 16 12 10 11 13 17 21 25 30 32 31 30 24 19 18 15 13 11 10 12 20 8 18 17 16 14 12 20 24 25 25 21 22 4 10 18 2 10 6 17 9
32 30 28 25 21 17 14 11 10 9 12 18 22 26 29 29 29 27 21 18 18 15 13 14 16 15 13 9 1 10 17 13 15 17 26 31 17 4 11 7 3 11 5 7 5 12 46
32 30 27 25 21 18 15 10 7 8 12 17 22 26 27 28 27 23 16 12 20 7 18 17 7 25 8 7 7 13 11 11 19 27 12 37 4 14 32 15 10 38 13 11 8 40 20
32 30 27 25 21 17 13 8 5 8 12 17 21 25 25 25 23 18 10 5 21 22 21 29 43 37 34 10 10 16 19 10 15 15 23 13 16 31 6 13 2 11 8 11 23 26 15
32 31 28 24 20 15 10 5 3 8 13 18 22 24 24 22 17 12 9 18 13 20 10 27 31 28 25 20 27 29 31 30 18 18 23 16 27 7 9 15 11 13 18 13 25 25 26
32 31 29 25 21 16 11 5 2 9 14 18 20 22 21 18 9 12 17 17 19 13 5 10 19 16 21 30 11 31 34 29 13 26 18 22 11 6 12 16 16 16 26 35 27 9 10
31 28 26 24 20 15 10 4 2 8 15 19 20 19 16 14 11 5 11 11 26 4 3 22 21 11 19 21 3 23 34 35 26 29 23 9 9 17 13 10 12 11 30 18 12 14 13
30 27 24 20 17 14 9 3 3 10 15 20 21 19 15 11 6 4 12 17 14 4 10 14 16 11 8 34 31 21 29 22 22 22 41 10 35 15 6 14 11 9 13 8 12 10 8
29 26 22 18 15 11 6 2 7 13 18 20 22 20 16 17 5 8 16 14 4 7 13 21 16 17 12 15 24 11 13 10 11 11 9 25 6 16 13 7 11 17 13 7 9 8 9
28 24 20 15 11 6 2 6 13 19 23 23 23 21 20 19 20 5 7 6 9 17 23 27 25 23 19 23 17 16 15 11 17 10 2 6 14 13 7 9 4 12 8 8 5 7 7
26 22 18 13 7 2 5 11 17 22 25 24 23 23 16 7 24 5 11 4 9 9 22 6 28 25 18 16 12 11 12 14 16 16 12 7 11 23 16 6 4 12 10 10 5 3 11
24 19 15 11 6 3 7 14 19 23 24 22 25 28 19 2 10 10 1 9 9 17 21 16 8 21 18 24 15 7 9 11 16 4 35 8 6 32 11 6 4 5 9 10 9 6 8
22 18 14 10 7 5 9 14 19 22 22 19 26 10 19 26 18 13 6 12 13 4 8 9 13 14 6 15 16 6 10 21 2 13 25 21 12 14 19 8 9 14 11 11 4 7 3
23 19 14 11 7 6 11 15 20 22 18 15 13 7 21 20 6 10 8 9 16 6 6 6 9 9 8 8 11 13 7 3 22 16 7 6 9 5 4 11 6 6 9 10 9 13 4
22 18 14 10 6 6 11 15 18 20 18 15 8 16 12 25 5 9 18 29 45 41 6 10 5 9 15 6 6 3 9 18 21 11 9 3 5 6 16 11 9 4 8 11 4 4 6
22 17 13 9 5 4 10 13 16 18 19 15 7 5 14 30 32 9 13 17 22 13 12 23 9 15 12 8 1 6 7 6 15 12 10 15 6 11 11 12 7 8 10 11 10 6 5
21 16 11 7 3 4 9 14 17 18 18 14 9 12 27 7 16 20 19 16 24 11 21 14 11 8 10 6 11 1 11 7 11 6 3 8 3 8 5 16 12 11 7 15 12 10 12
20 15 11 6 3 5 9 13 17 20 17 12 11 13 22 29 33 24 17 14 25 16 13 11 12 18 13 8 8 5 9 7 8 4 3 4 1 7 10 16 12 11 11 12 13 18 15
19 15 10 5 2 5 10 14 18 18 10 4 18 17 10 23 11 9 13 17 16 25 30 24 20 12 12 21 26 26 16 23 24 17 7 9 6 7 7 20 23 15 6 14 14 13 14
20 14 10 5 3 3 9 13 18 20 16 12 22 15 10 9 13 7 27 31 21 19 6 17 12 3 13 16 27 2 6 8 30 16 20 10 9 6 7 6 5 12 14 16 17 15 17
20 16 11 6 2 3 7 11 15 19 16 6 16 16 9 8 31 39 47 30 40 5 5 6 4 1 16 16 2 7 4 4 8 14 11 11 9 2 6 5 7 8 10 11 14 12 16
22 16 12 7 2 3 7 11 14 17 18 3 12 29 3 12 9 35 37 38 7 7 5 6 6 11 9 6 4 8 8 11 6 4 7 2 6 9 3 2 5 8 12 24 28 6 23
21 17 12 7 2 3 7 11 13 17 20 8 11 31 5 8 13 31 26 17 32 14 5 13 5 2 2 4 2 4 4 7 4 7 4 10 9 9 5 6 4 4 17 5 2 13 28
22 16 11 7 2 3 6 10 13 17 19 14 10 28 26 8 8 18 18 24 23 16 5 20 8 7 3 1 0 7 9 8 7 12 9 9 7 8 9 4 3 7 3 5 19 34 32
24 17 10 5 1 3 6 9 12 15 16 16 12 16 17 12 7 13 10 13 15 16 15 11 15 17 16 4 7 9 5 7 12 6 6 2 11 10 10 7 24 12 20 36 42 44 33
Wind_Direction_850mb
226 225 227 235 240 249 262 274 281 300 311 321 328 331 332 333 332 331 325 319 314 318 325 329 327 327 343 324 290 325 322 281 206 204 220 287 302 295 304 351 76 94 94 90 127 140 140
225 225 226 230 235 242 247 255 276 302 308 319 325 329 330 330 330 330 325 322 312 319 320 327 325 324 329 292 339 330 330 184 174 208 215 290 292 329 16 55 66 98 96 116 116 38 90
219 222 224 228 232 241 251 268 283 287 298 316 324 326 326 328 331 330 327 322 313 316 316 325 321 323 297 249 309 322 326 184 156 270 293 317 333 341 333 358 87 129 112 137 138 231 351
213 215 219 223 227 237 242 251 262 282 302 318 325 325 326 329 331 329 328 321 313 309 313 315 318 321 266 301 267 243 268 184 214 248 273 302 320 318 306 231 39 70 63 52 143 122 305
208 209 212 215 216 219 224 236 260 282 307 319 320 321 325 329 329 330 327 317 305 306 303 294 305 331 276 282 269 194 211 211 244 256 257 282 297 291 306 81 54 18 49 303 314 165 211
204 203 204 206 206 205 211 225 246 280 304 314 320 322 325 327 329 331 325 316 317 303 293 283 257 298 263 218 202 190 196 199 233 266 271 264 263 234 299 76 212 153 202 248 168 94 62
197 195 193 192 191 194 200 217 249 292 310 316 318 322 325 328 328 331 327 340 345 26 318 242 185 269 269 67 138 189 186 226 223 258 252 271 231 236 228 233 219 182 158 198 103 140 101
188 185 183 182 182 186 189 207 258 303 317 320 321 324 327 328 327 331 325 322 26 332 305 275 274 273 263 251 205 217 191 208 219 248 261 313 248 259 155 236 74 47 94 93 70 100 80
179 177 176 175 175 177 179 193 305 326 330 328 325 327 329 329 332 6 344 333 355 345 290 292 245 252 246 227 243 209 196 214 235 235 258 233 260 213 290 38 72 50 78 49 118 85 53
175 174 171 171 170 169 167 166 2 348 346 340 329 326 326 322 320 333 308 11 348 313 314 250 201 240 244 212 255 209 205 217 243 248 264 262 231 149 65 56 46 62 92 100 158 97 103
171 170 169 169 164 164 160 156 23 356 356 353 339 328 320 306 276 284 23 327 327 237 321 153 179 195 197 204 227 203 208 231 257 285 310 258 30 80 83 68 53 154 121 135 110 83 93
168 167 168 167 164 165 162 166 326 337 345 348 344 327 312 291 252 351 350 341 316 17 246 165 153 206 163 217 249 215 204 230 292 285 287 230 132 108 90 82 78 295 146 58 74 117 47
167 167 167 165 167 168 172 263 311 320 324 330 335 319 294 260 215 8 338 303 352 223 155 146 167 155 195 244 246 209 179 248 230 344 359 343 160 104 82 13 29 16 9 343 17 40 194
166 166 164 162 167 165 230 316 321 319 316 313 320 309 285 261 228 29 333 2 244 289 281 162 161 161 194 215 239 254 180 216 270 250 353 80 332 25 71 56 41 305 119 131 288 163 164
165 166 164 161 165 194 312 317 321 320 321 312 313 308 280 242 209 207 317 245 233 308 325 81 155 156 209 212 220 219 174 208 240 230 138 143 302 312 72 356 88 304 1 232 187 325 93
169 169 170 168 179 261 311 314 318 320 324 319 307 308 269 150 165 172 235 257 278 287 348 8 341 171 186 188 195 215 177 253 252 134 127 33 38 287 174 244 185 237 260 9 2 6 75
175 177 180 187 199 264 297 311 322 327 326 316 321 302 130 174 199 197 210 246 304 269 64 337 6 338 276 157 161 234 213 268 72 165 114 153 137 330 57 5 352 356 13 20 94 64 89
179 179 184 198 216 278 308 314 323 333 325 310 330 288 183 203 153 215 232 258 266 19 155 304 347 300 288 192 172 203 246 285 133 95 43 26 129 94 197 290 323 335 108 91 106 311 303
180 181 186 195 225 283 311 319 326 334 331 322 289 264 206 192 208 247 261 272 277 284 246 181 244 264 317 32 133 57 94 324 74 68 114 18 355 95 343 3 337 292 140 116 144 74 289
181 186 190 199 222 304 322 328 327 329 324 318 276 273 184 210 231 289 311 280 266 247 320 324 223 256 331 358 360 86 130 44 53 90 97 89 49 131 173 210 286 257 179 174 118 69 335
181 186 186 196 232 320 332 337 333 328 317 308 237 279 337 202 236 233 255 286 298 254 197 268 311 232 267 310 341 54 115 105 86 73 95 101 101 352 287 244 250 321 320 105 90 56 87
178 180 182 189 252 334 342 345 340 333 319 303 321 337 326 300 209 199 234 266 271 257 174 202 228 282 218 244 237 317 153 155 184 142 55 35 123 14 288 345 318 229 292 130 124 115 76
175 177 181 188 254 336 351 2 354 355 352 27 326 300 321 287 292 195 247 260 273 256 266 171 202 229 244 243 261 285 295 241 173 146 167 133 110 71 293 47 359 329 2 106 109 93 115
175 171 178 189 228 347 5 9 11 12 24 55 358 333 300 293 333 236 252 257 266 315 104 317 281 357 332 316 228 12 3 46 157 164 160 155 135 145 239 66 225 241 81 81 96 130 113
175 171 172 189 196 22 5 12 18 18 19 34 8 8 345 317 327 355 345 315 262 187 50 359 343 89 303 324 99 65 2 359 186 190 171 146 138 157 138 209 264 66 106 121 118 47 85
176 173 170 167 182 14 3 14 22 16 19 9 19 6 59 319 347 355 341 358 270 169 142 252 279 301 306 281 138 146 180 192 234 175 141 166 126 126 134 335 265 183 106 101 99 56 87
175 172 170 166 173 353 1 14 19 17 14 15 7 11 11 298 357 4 5 340 2 1 359 335 140 260 289 309 343 169 150 349 60 104 359 8 328 166 210 223 74 318 98 108 202 215 116
174 171 165 161 153 12 0 11 16 17 18 34 23 352 356 270 327 2 5 27 13 25 40 334 360 357 148 330 76 92 41 10 28 4 349 101 12 331 356 342 60 300 75 166 157 126 129
176 177 179 183 223 347 356 4 8 10 10 15 332 311 327 264 253 351 32 54 51 3 342 333 309 357 336 328 66 91 124 26 334 325 285 322 182 189 155 232 250 136 132 146 157 153 152